Flag for Germany Weather past 2 weeks in Pfaffenhofen an der Ilm, Bavaria, Germany

Now
63 °F

Broken clouds.


Feels Like: 63 °F
Forecast: 52 / 64 °F
Wind: 3 mph from West

Location: Ingolstadt Airport

Current Time: Aug 30, 2014 at 10:25:50 AM

Latest Report: Aug 30, 2014 at 9:20 AM


Visibility: N/A

Pressure: 30.12 "Hg

Humidity: 88%

Dew point: 59 °F

Location of Pfaffenhofen an der IlmLocation

Historic Weather in Pfaffenhofen an der Ilm — Graph

°F

Pfaffenhofen an der Ilm temperature yesterday

Maximum temperature yesterday: 70 °F (at 4:20 PM)
Minimum temperature yesterday: 52 °F (at 6:20 AM)
Average temperature yesterday: 62 °F

Past Weeks' High & Low Weather Summary

 TemperatureHumidityPressure
High72 °F (Aug 28, 3:20 PM)100% (Aug 21, 3:20 AM)30.15 "Hg (Aug 21, 3:20 AM)
Low45 °F (Aug 25, 2:20 AM)40% (Aug 21, 4:20 PM)29.71 "Hg (Aug 26, 8:20 AM)
Average59 °F77%30.00 "Hg
* Reported Aug 15 10:20 AM — Aug 30 9:20 AM, Pfaffenhofen an der Ilm, Weather by CustomWeather, © 2014

Note: Actual official high and low records may vary slightly from our data, if they occured in-between our weather recording intervals... More about our weather records

Advertising

Pfaffenhofen an der Ilm weather history for previous 24 hours

 ConditionsComfort  
Time TempWeatherWind HumidityBarometerVisibility
9:20 AM
Aug 30
63 °FBroken clouds.3 mph88%30.12 "HgN/A
8:20 AM63 °FMild.8 mph94%30.09 "Hg5 mi
7:20 AM61 °FCool.5 mph100%30.09 "Hg3 mi
6:20 AM61 °FCool.5 mph100%30.09 "Hg3 mi
5:20 AM61 °FCool.3 mph100%30.07 "Hg3 mi
4:20 AM63 °FMild.3 mph94%30.07 "Hg5 mi
3:20 AM63 °FMild.2 mph94%30.07 "Hg5 mi
2:20 AM63 °FMild.2 mph94%30.07 "Hg6 mi
1:20 AM63 °FMild.No wind94%30.07 "Hg6 mi
12:20 AM63 °FMild.2 mph94%30.07 "Hg6 mi
11:20 PM
Aug 29
63 °FMild.No wind94%30.07 "Hg6 mi
10:20 PM63 °FMild.2 mph94%30.07 "HgN/A
8:20 PM64 °FMild.2 mph88%30.04 "Hg5 mi
7:20 PM66 °FMild.No wind83%30.04 "HgN/A
6:20 PM70 °FScattered clouds.3 mph69%30.04 "HgN/A
5:20 PM70 °FScattered clouds.5 mph69%30.04 "HgN/A
4:20 PM70 °FScattered clouds.7 mph73%30.07 "HgN/A
3:20 PM66 °FScattered clouds.5 mph83%30.07 "HgN/A
2:20 PM64 °FPartly sunny.3 mph88%30.09 "HgN/A
1:20 PM63 °FRain. Partly sunny.6 mph88%30.09 "HgN/A
12:20 PM66 °FLight rain. Broken clouds.7 mph78%30.09 "HgN/A
11:20 AM64 °FPartly sunny.2 mph83%30.07 "HgN/A
10:20 AM63 °FPartly sunny.5 mph83%30.07 "HgN/A
Weather by CustomWeather, © 2014

See weather overviewHow to use our weather pages